COSMOS 1641

Satellite information

Favourite Embed

Satellite Type and Status

PAYLOADIN ORBIT

Key statistics

Satellite COSMOS 1641 at a glance.

Uptime

14781

Days in orbit

Revolutions

≈ 12.5

Per day

Orbit

LEO

Low Earth Orbit

Inclination

74.1

Latest

Satellite identification and parameters

Extended collection of information and parameters for COSMOS 1641.

Object identification

Identified? True

Debris? False

Object name: COSMOS 1641

International designator: 1985-023G

Object number (NORAD): 15623

Object ID (CCSDS): 15623

Country: COMMONWEALTH OF INDEPENDENT STATES (CIS)

Current information (Y/N): Y

RCS size: MEDIUM

Orbital parameters

Period: 114.782 minutes

Inclination: 74.0541 deg

SMA: 7823.628 km

Apoapsis: 1479.862 km

Periapsis: 1411.124 km

RAAN: 215.3267 deg

Eccentricy: 0.00439299

Argument of periapsis: 347.4388 deg

Mean anomaly: 75.1486 deg

Mean motion: 12.54557146 rev/day

Mean motion (dot): -0.00000025 rev/day2

B* drag term: -0.000054543498 1/REarth

Two-line elements (TLE)

Creation date: Sept. 7, 2025, 3:09 a.m.

Reference frame: TEME

Reference center: EARTH

Epoch: Sept. 6, 2025, 10:18 p.m. UTC

TLE line 0: 0 COSMOS 1641

TLE line 1: 1 15623U 85023G 25249.92917059 -.00000025 00000-0 -54543-4 0 9993

TLE line 2: 2 15623 74.0541 215.3267 0043930 347.4388 75.1486 12.54557146853201

Live tracking on map

Real-time ground track for satellite COSMOS 1641.

In-orbit conjunctions

There are no conjunctions computed for COSMOS 1641, at the moment. Check back to stay up to date, as we update our databases every day.

Go to all conjunctions

Associated space launch

Military communications satellites

COSMOS 1641 was lifted into orbit during the mission ‘Kosmos-3M | Strela-1M 289-296’, on board a Kosmos-3M space rocket.

The launch took place on March 21, 1985, 12:08 a.m. from 132/2.

For more information about the launch, click the button.

Launch to space Kosmos-3M | Strela-1M 289-296
Kosmos-3M | Strela-1M 289-296

Agency: N/A

Status: Launch Successful

Launch date: March 21, 1985, 12:08 a.m. UTC

Rocket: Kosmos-3M

Launch pad: 132/2

Location: Plesetsk Cosmodrome, Russian Federation

...

Latest news about this satellite

There are no fresh news available about this satellite. Check back as we update our databases every day.


Newsletter sign-up

Weekly statistics, charts and insights to help you stay on top of the space industry.